Paganella, Italy

1:47 AM CET on December 05, 2016 (GMT +0100)
Paganella

Weather History for LIVP - May, 2013

Change the Weather History Date:

Thursday, May 23, 2013

  Actual Average Record
Temperature  
Mean Temperature 37 °F -  
Max Temperature 46 °F 48 °F 59 °F (2007)
Min Temperature 28 °F 37 °F 26 °F (2004)
Degree Days  
Heating Degree Days 28    
Moisture  
Dew Point 25 °F    
Average Humidity 69    
Maximum Humidity 100    
Minimum Humidity 39    
Precipitation  
Precipitation 0.55 in - - ()
Sea Level Pressure  
Sea Level Pressure 29.63 in    
Wind  
Wind Speed 14 mph ()    
Max Wind Speed 23 mph    
Max Gust Speed 23 mph    
Visibility 4.0 miles    
Events Fog , Snow    
Averages and records for this station are not official NWS values.
T = Trace of Precipitation, MM = Missing Value Source: Averaged Metar Reports

Daily Weather History Graph

Daily Weather History Graph

Search for Another Location

Airport or City:

Trip Planner

Search our weather history database for the weather conditions in past years. The results will help you decide how hot, cold, wet, or windy it might be!

Date:

Astronomy

May. 23, 2013 Rise Set
Actual Time 5:34 AM CEST 8:50 PM CEST
Civil Twilight 4:58 AM CEST 9:27 PM CEST
Nautical Twilight 4:11 AM CEST 10:15 PM CEST
Astronomical Twilight 3:12 AM CEST 11:14 PM CEST
Moon 6:58 PM CEST (5/23) 4:14 AM CEST (5/23)
Length of Visible Light 16h 28m
Length of Day
15h 16m
Waxing Gibbous, 95% of the Moon is Illuminated
May 23
Waxing Gibbous
May 25
Full
May 31
Last Quarter
Jun 8
New
Jun 16
First Quarter

Hourly Weather History & Observations

Time (CEST) Temp. Windchill Dew Point Humidity Pressure Visibility Wind Dir Wind Speed Gust Speed Precip Events Conditions
12:55 AM 33.8 °F 22.2 °F 24.8 °F 70% 29.71 in 6.2 mi North 20.7 mph - N/A   Partly Cloudy
1:55 AM 32.0 °F 19.8 °F 24.8 °F 75% 29.71 in 6.2 mi North 20.7 mph - N/A   Partly Cloudy
2:00 AM 32 °F - 25 °F 66%  in 31 mi North 20.7 mph - -   Scattered Clouds
2:55 AM 32.0 °F 19.5 °F 24.8 °F 75% 29.68 in 6.2 mi North 21.9 mph - N/A   Partly Cloudy
3:55 AM 30.2 °F 16.8 °F 23.0 °F 75% 29.68 in 6.2 mi North 23.0 mph - N/A   Partly Cloudy
4:55 AM 32.0 °F 19.2 °F 21.2 °F 64% 29.65 in - North 23.0 mph - N/A   Clear
5:00 AM 31 °F - 22 °F 57%  in 47 mi North 23.0 mph - -   Mostly Cloudy
5:55 AM 30.2 °F 17.1 °F 21.2 °F 69% 29.65 in - North 21.9 mph - N/A   Clear
6:55 AM 30.2 °F 18.1 °F 19.4 °F 64% 29.65 in - North 18.4 mph - N/A   Clear
7:55 AM 32.0 °F 21.6 °F 19.4 °F 60% 29.65 in - North 15.0 mph - N/A   Clear
8:00 AM 33 °F - 20 °F 45%  in 47 mi North 15.0 mph - -   Partly Cloudy
8:55 AM 33.8 °F 24.8 °F 19.4 °F 56% 29.65 in - North 12.7 mph - N/A   Clear
9:55 AM 33.8 °F 25.3 °F 19.4 °F 56% 29.65 in 6.2 mi North 11.5 mph - N/A   Partly Cloudy
10:55 AM 35.6 °F 29.2 °F 19.4 °F 52% 29.65 in 6.2 mi NNW 8.1 mph - N/A   Partly Cloudy
11:00 AM 36 °F - 20 °F 39%  in 47 mi NNW 8.1 mph - -   Scattered Clouds
11:55 AM 37.4 °F 33.8 °F 24.8 °F 60% 29.65 in 6.2 mi Variable 4.6 mph - N/A   Partly Cloudy
12:55 PM 37.4 °F 34.9 °F 23.0 °F 56% 29.62 in 6.2 mi WSW 3.5 mph - N/A   Partly Cloudy
1:55 PM 39.2 °F 34.2 °F 24.8 °F 56% 29.62 in 6.2 mi South 6.9 mph - N/A   Scattered Clouds
2:00 PM 39 °F - 25 °F 46%  in 47 mi South 6.9 mph - -   Partly Cloudy
2:55 PM 41.0 °F 34.7 °F 28.4 °F 61% 29.62 in 6.2 mi South 10.4 mph - N/A   Scattered Clouds
3:55 PM 42.8 °F 36.6 °F 28.4 °F 57% 29.59 in 6.2 mi SSW 11.5 mph 23.0 mph N/A   Scattered Clouds
4:55 PM 46.4 °F 40.7 °F 32.0 °F 57% 29.59 in 6.2 mi SSW 12.7 mph - N/A   Scattered Clouds
5:00 PM 46 °F - 31 °F 44%  in 25 mi SSW 12.7 mph - -   Mostly Cloudy
5:55 PM 41.0 °F 35.2 °F 28.4 °F 61% 29.59 in 6.2 mi SW 9.2 mph - N/A   Scattered Clouds
6:55 PM 33.8 °F 22.8 °F 32.0 °F 93% 29.56 in 0.6 mi WSW 18.4 mph - N/A Fog , Snow Light Snow
7:55 PM 33.8 °F 25.3 °F 32.0 °F 93% 29.56 in 0.6 mi WSW 11.5 mph - N/A Fog , Snow Light Snow
8:00 PM 33 °F - 31 °F 91%  in 1 mi WSW 11.5 mph - - Snow Light Snow
8:55 PM 32.0 °F 25.6 °F 32.0 °F 100% 29.56 in 0.1 mi West 6.9 mph - N/A Fog , Snow Snow
9:55 PM 30.2 °F 23.4 °F 30.2 °F 100% 29.59 in 0.2 mi West 6.9 mph - N/A Fog , Snow Snow
10:55 PM 28.4 °F 17.0 °F 28.4 °F 100% 29.59 in 0.1 mi North 15.0 mph - N/A Fog , Snow Snow
11:00 PM 29 °F - 28 °F 96%  in 0 mi North 15.0 mph - - Snow Snow
11:55 PM 28.4 °F 20.4 °F 28.4 °F 100% 29.59 in 0.1 mi ENE 8.1 mph - N/A Fog , Snow Light Snow